Weather History for KFAR - August, 2012

Change the Weather History Date:

Wednesday, August 15, 2012

  Actual Average Record
Temperature  
Mean Temperature 71 °F 70 °F  
Max Temperature 81 °F 82 °F 102 °F (1935)
Min Temperature 60 °F 58 °F 43 °F (1979)
Degree Days  
Heating Degree Days 0 1  
Month to date heating degree days 3 11  
Since 1 June heating degree days 23 100  
Since 1 July heating degree days 3 27  
Cooling Degree Days 6 6  
Month to date cooling degree days 69 96  
Year to date cooling degree days 668 436  
Since 1 June cooling degree days 610 405  
Growing Degree Days 20 (Base 50)    
Moisture  
Dew Point 58 °F    
Average Humidity 69    
Maximum Humidity 78    
Minimum Humidity 60    
Precipitation  
Precipitation 0.01 in 0.08 in 1.57 in (1881)
Month to date precipitation 0.91 1.09  
Year to date precipitation 11.21 14.59  
Snow  
Snow 0.00 in 0.00 in 0.00 in ()
Month to date snowfall 0.0 0.0  
Since 1 June snowfall 0.0 0.0  
Since 1 July snowfall 0.0 0.0  
Snow Depth 0.00 in    
Sea Level Pressure  
Sea Level Pressure 29.75 in    
Wind  
Wind Speed 14 mph (WSW)    
Max Wind Speed 33 mph    
Max Gust Speed 43 mph    
Visibility 10 miles    
Events Rain    
T = Trace of Precipitation, MM = Missing Value Source: NWS Daily Summary

Daily Weather History Graph

Daily Weather History Graph

Search for Another Location

Airport or City:

Trip Planner

Search our weather history database for the weather conditions in past years. The results will help you decide how hot, cold, wet, or windy it might be!

Date:

Astronomy

Aug. 15, 2012 Rise Set
Actual Time 6:25 AM CDT 8:36 PM CDT
Civil Twilight 5:52 AM CDT 9:10 PM CDT
Nautical Twilight 5:10 AM CDT 9:51 PM CDT
Astronomical Twilight 4:24 AM CDT 10:37 PM CDT
Moon 4:19 AM CDT (8/15) 7:12 PM CDT (8/15)
Length of Visible Light 15h 18m
Length of Day
14h 11m
Waning Crescent, 4% of the Moon is Illuminated
Aug 15
Waning Crescent
Aug 17
New
Aug 24
First Quarter
Aug 31
Full
Sep 8
Last Quarter

Hourly Weather History & Observations

Time (CDT) Temp. Heat Index Dew Point Humidity Pressure Visibility Wind Dir Wind Speed Gust Speed Precip Events Conditions
12:53 AM 63.0 °F - 53.1 °F 70% 29.79 in 10.0 mi SE 8.1 mph - N/A   Clear
1:53 AM 64.0 °F - 53.1 °F 67% 29.77 in 10.0 mi SE 10.4 mph - N/A   Clear
2:53 AM 63.0 °F - 53.1 °F 70% 29.75 in 10.0 mi SE 11.5 mph - N/A   Clear
3:53 AM 63.0 °F - 54.0 °F 72% 29.73 in 10.0 mi SE 10.4 mph - N/A   Clear
4:53 AM 63.0 °F - 54.0 °F 72% 29.71 in 10.0 mi SE 10.4 mph - N/A   Clear
5:53 AM 63.0 °F - 54.0 °F 72% 29.70 in 10.0 mi SE 10.4 mph - N/A   Clear
6:53 AM 63.0 °F - 55.0 °F 75% 29.70 in 10.0 mi SSE 10.4 mph - N/A   Clear
7:53 AM 64.0 °F - 55.9 °F 75% 29.69 in 10.0 mi SSE 12.7 mph - N/A   Clear
8:53 AM 68.0 °F - 59.0 °F 73% 29.68 in 10.0 mi South 18.4 mph 23.0 mph N/A   Clear
9:53 AM 71.1 °F - 61.0 °F 70% 29.67 in 10.0 mi South 11.5 mph 42.6 mph N/A   Clear
10:53 AM 75.0 °F - 63.0 °F 66% 29.68 in 10.0 mi SSW 10.4 mph - N/A   Clear
11:53 AM 77.0 °F - 64.0 °F 64% 29.67 in 10.0 mi SSW 6.9 mph - N/A   Clear
12:53 PM 78.1 °F - 64.9 °F 64% 29.65 in 10.0 mi South 6.9 mph - N/A   Clear
1:53 PM 80.1 °F 82.1 °F 66.0 °F 62% 29.66 in 10.0 mi SW 13.8 mph - N/A   Partly Cloudy
2:53 PM 79.0 °F - 66.0 °F 64% 29.65 in 10.0 mi SW 4.6 mph - N/A   Scattered Clouds
3:53 PM 75.0 °F - 61.0 °F 62% 29.68 in 10.0 mi NW 32.2 mph 39.1 mph 0.00 in   Partly Cloudy
4:53 PM 71.1 °F - 60.1 °F 68% 29.73 in 10.0 mi WNW 21.9 mph 31.1 mph N/A   Scattered Clouds
5:53 PM 66.0 °F - 61.0 °F 84% 29.75 in 7.0 mi West 13.8 mph 27.6 mph 0.00 in Rain Light Rain
6:53 PM 68.0 °F - 61.0 °F 78% 29.76 in 10.0 mi WNW 17.3 mph 23.0 mph 0.01 in   Partly Cloudy
7:53 PM 66.9 °F - 57.9 °F 73% 29.79 in 10.0 mi NNW 18.4 mph 25.3 mph N/A   Mostly Cloudy
8:06 PM 66.2 °F - 57.2 °F 73% 29.80 in 10.0 mi NW 18.4 mph 26.5 mph N/A   Overcast
8:25 PM 66.2 °F - 57.2 °F 73% 29.81 in 10.0 mi NNW 19.6 mph 25.3 mph N/A   Overcast
8:53 PM 64.9 °F - 55.9 °F 73% 29.83 in 10.0 mi NW 13.8 mph 25.3 mph N/A   Overcast
9:31 PM 64.4 °F - 55.4 °F 73% 29.86 in 10.0 mi NW 16.1 mph - N/A   Overcast
9:53 PM 63.0 °F - 54.0 °F 72% 29.87 in 10.0 mi NW 21.9 mph 32.2 mph N/A   Overcast
10:45 PM 62.6 °F - 53.6 °F 72% 29.89 in 10.0 mi NNW 15.0 mph 24.2 mph N/A   Overcast
10:53 PM 63.0 °F - 54.0 °F 72% 29.88 in 10.0 mi NNW 13.8 mph 21.9 mph N/A   Overcast
11:50 PM 60.8 °F - 51.8 °F 72% 29.91 in 10.0 mi NW 20.7 mph 25.3 mph N/A   Overcast
11:53 PM 61.0 °F - 52.0 °F 72% 29.90 in 10.0 mi NW 17.3 mph 25.3 mph N/A   Overcast